星链-5365 (STARLINK-5365 )

导读

STARLINK-5365是一颗由美国发射的Starlink(星链)卫星。星链是SpaceX打造的低轨卫星互联网星座项目,卫星于2023年2月2日发射,旨在为全球提供高速互联网服务,尤其是为偏远地区等网络基础设施匮乏区域提供连接支持,也是低轨巨型星座组网的组成部分。

Basic Information
目录编号:
55498
目录名称:
STARLINK-5365
国际标识:
2023-015BB
轨道中心:
EARTH
卫星名称:
星链-5365
卫星全名:
星链-5365 (STARLINK-5365 )
卫星状态:
在轨 (已飞行1229 天)
发射日期:
2023-02-02 UTC
国别 :
美国 (US)
星等 :
--
Orbit Information
数据来源 国际轨道数据 AOE轨道数据
星历时间 2026-06-15T00:02:56+0800
13小时前
查看轨道信息
2026-06-15T05:00:00+0800
8小时前
查看轨道信息
半长轴 6861.209km 6861.214km
偏心率 0.0000902 0.0000036
轨道倾角 42.998° 42.999°
近地点辐角 282.200° 8.212°
升交点赤经 152.314° 151.155°
平近点角 77.875° 47.685°
近地点 482.453km 483.052km
远地点 483.691km 483.102km
周期 94.267分钟 94.267分钟
每日圈数 15.275724 15.275709
Detailed Information
固有亮度:
5
最大亮度:
2.5
卫星平台:
Starlink v1.5
覆盖范围:
全球
运营商:
太空探索技术公司
运营商所在国:
美国
制造商(研发单位):
太空探索技术公司
制造商所在国:
美国
使用方式:
暂无
Satellite Introduction
星链(Starlink)计划是由太空探索技术公司(SpaceX)提出的一个巨型低轨卫星互联网星座项目,计划在2019年至2024年间在太空搭建由约1.2万颗卫星组成的“星链”网络,其中1584颗将部署在地球上空550千米处的近地轨道,并从2020年开始工作。该卫星仍在工作。
2D Orbit Map
3D Orbit Map
Orbit Altitude Analysis Chart
Orbit Inclination Analysis Chart
Orbit Comprehensive Analysis Chart
View Comprehensive Chart